This is the latest recevied weather packets stored in our database for station/object KA1AL. If no packets are shown the sender has not sent any weather packets the latest 10 day(s).
| Time | Temp. | Humidity | Pressure | Rain* | Wind** | Luminosity | Snow |
|---|---|---|---|---|---|---|---|
| 1777844475 | 9.44° C | 55% | 1001.7 hPa | 0 mm | - | 246 W/m² | - |
| 1777844174 | 9.44° C | 58% | 1001.9 hPa | 0 mm | - | 269 W/m² | - |
| 1777843870 | 8.89° C | 56% | 1001.8 hPa | 0 mm | - | 291 W/m² | - |
| 1777843568 | 8.89° C | 55% | 1001.9 hPa | 0 mm | - | 328 W/m² | - |
| 1777843265 | 8.89° C | 55% | 1001.6 hPa | 0 mm | - | 189 W/m² | - |
| 1777842962 | 8.89° C | 55% | 1001.6 hPa | 0 mm | - | 213 W/m² | - |
| 1777842657 | 8.89° C | 56% | 1001.7 hPa | 0 mm | - | 144 W/m² | - |
| 1777842354 | 8.89° C | 57% | 1001.7 hPa | 0 mm | - | 171 W/m² | - |
| 1777842050 | 8.89° C | 56% | 1001.7 hPa | 0 mm | - | 169 W/m² | - |
| 1777841747 | 9.44° C | 57% | 1001.6 hPa | 0 mm | - | 178 W/m² | - |
| 1777841443 | 9.44° C | 58% | 1001.6 hPa | 0 mm | - | 206 W/m² | - |
| 1777841140 | 9.44° C | 58% | 1001.7 hPa | 0 mm | - | 232 W/m² | - |
| 1777840837 | 9.44° C | 63% | 1001.6 hPa | 0 mm | - | 348 W/m² | - |
| 1777840534 | 8.89° C | 59% | 1001.8 hPa | 0 mm | - | 246 W/m² | - |
| 1777840232 | 8.89° C | 63% | 1001.8 hPa | 0 mm | - | 233 W/m² | - |
| 1777839929 | 8.89° C | 63% | 1001.8 hPa | 0 mm | - | 219 W/m² | - |
| 1777839627 | 8.33° C | 63% | 1001.7 hPa | 0 mm | - | 219 W/m² | - |
| 1777839325 | 8.89° C | 63% | 1002 hPa | 0 mm | - | 221 W/m² | - |
| 1777839022 | 8.89° C | 69% | 1002.2 hPa | 0 mm | - | 258 W/m² | - |
| 1777838718 | 8.33° C | 71% | 1001.8 hPa | 0 mm | - | 232 W/m² | - |
| 1777838415 | 8.33° C | 68% | 1002.2 hPa | 0 mm | - | 179 W/m² | - |
| 1777838112 | 8.33° C | 69% | 1002.3 hPa | 0 mm | - | 225 W/m² | - |
| 1777837809 | 8.33° C | 71% | 1002.2 hPa | 0 mm | - | 230 W/m² | - |
| 1777837506 | 8.33° C | 76% | 1002.2 hPa | 0 mm | - | 150 W/m² | - |
| 1777837201 | 7.78° C | 77% | 1002.3 hPa | 0 mm | - | 198 W/m² | - |
* Rain latest hour (hover to see other rain measurements)
** Current wind speed in m/s (hover to see current wind gust speed)